Погода в Знаменском

Россия / Саратовская область     52°19′31″N   49°09′52″E
темп.,
°C
ветер,
м/с
пор.,
м/с
влажн.,
%
обл.,
%
осадки,
мм/ч
давл.,
гПа
погр.,
м
12 мая, ср
ср1201:00+13св2284100 0.4 102537
04:00+13св3686100 2.9 1024110
07:00+14всв51378100 0.8 1024328
10:00+16в71564100 0.8 1024447
13:00+16вюв51071100 0.2 1024371
16:00+18вюв51068100 0.3 1024447
19:00+18в357367 0.0 1024148
22:00+16в4107212 0.0 1023177
13 мая, чт
чт1301:00+16в5136281 0.0 1023261
04:00+15в51360100 0.0 1023264
07:00+15вюв51171100 0.4 1023287
10:00+18вюв71566100 0.6 1022427
13:00+25юв91337100 0.0 10221248
16:00+25ююв8133976 0.0 10211468
19:00+22юв61448100 0.0 1021434
22:00+18юв6165733 0.1 1021327
14 мая, пт
пт1401:00+16юв4136933 0.1 1022208
04:00+14юв5127473 0.4 1023184
07:00+17юв410644 0.3 1023215
10:00+23ююв610415 0.3 1023481
13:00+27ююв793188 0.1 10231117
16:00+27ююв793333 0.1 10221227
19:00+23ююв5114531 0.0 1022276
22:00+18юв410530 0.0 1022149
15 мая, сб
сб1501:00+17юв38545 0.0 1022117
04:00+15ююв465371 0.0 102283
07:00+17юв375461 0.0 1022169
10:00+24ююв583612 0.0 1022423
13:00+28ю68275 0.0 10221359
16:00+29ю67245 0.0 10202430
19:00+26ююв48485 0.0 1020180
22:00+20ююв35560 0.0 102074
16 мая, вс
вс1601:00+19юв33565 0.0 102038
04:00+17юв33560 0.0 102042
07:00+19юв39590 0.0 1020219
10:00+26ююв58410 0.0 1020601
13:00+30ю710285 0.0 10182961
16:00+30ююз68235 0.0 10173419
19:00+27юз124099 0.0 101713
22:00+23вюв2244100 0.0 101711